When you browse on this site, cookies collect data to enhance your experience and personalize the content and advertising you see.
Visit our Privacy Policy to learn more. By continuing to use the site, you agree to this use of cookies and data.
  • In France
  • List of Countries
  • For 7 days
  • Water Temperature
  • Weather Map
  • Weather Widgets
  • user-avatar
    Login

    Hourly Weather Willingboro

    Today, 5 June, Friday

    Time Temperature Precipitation Wind Pressure Humidity
    00:00 +24°C° 1.2 mm 2 mps 758 mmHg 80%
    01:00 +24°C° 0 mm 1 mps 758 mmHg 77%
    02:00 +24°C° 0.1 mm 1 mps 758 mmHg 81%
    03:00 +23°C° 0.1 mm 1 mps 758 mmHg 84%
    04:00 +23°C° 0.1 mm 2 mps 758 mmHg 87%
    05:00 +24°C° 0 mm 2 mps 758 mmHg 85%
    06:00 +24°C° 0 mm 2 mps 758 mmHg 83%
    07:00 +25°C° 0 mm 2 mps 759 mmHg 81%
    08:00 +26°C° 0.1 mm 2 mps 759 mmHg 75%
    09:00 +28°C° 0.1 mm 2 mps 759 mmHg 69%
    10:00 +29°C° 0.1 mm 2 mps 759 mmHg 63%
    11:00 +29°C° 0.5 mm 3 mps 759 mmHg 64%
    12:00 +29°C° 0.5 mm 3 mps 759 mmHg 65%
    13:00 +29°C° 0.5 mm 3 mps 758 mmHg 66%
    14:00 +29°C° 1.3 mm 3 mps 758 mmHg 70%
    15:00 +28°C° 1.3 mm 2 mps 758 mmHg 73%
    16:00 +27°C° 1.3 mm 1 mps 757 mmHg 76%
    17:00 +26°C° 1.5 mm 1 mps 757 mmHg 81%
    18:00 +25°C° 1.5 mm 1 mps 757 mmHg 85%
    19:00 +24°C° 1.5 mm 1 mps 757 mmHg 89%
    20:00 +24°C° 1.4 mm 1 mps 757 mmHg 90%
    21:00 +24°C° 1.4 mm 1 mps 757 mmHg 92%
    22:00 +24°C° 1.4 mm 1 mps 757 mmHg 93%
    23:00 +24°C° 0.7 mm 1 mps 757 mmHg 93%

    Tomorrow, 6 June, Saturday

    Time Temperature Precipitation Wind Pressure Humidity
    00:00 +24°C° 0.7 mm 2 mps 757 mmHg 93%
    01:00 +23°C° 0.7 mm 2 mps 756 mmHg 93%
    02:00 +23°C° 0 mm 1 mps 756 mmHg 93%
    03:00 +23°C° 0 mm 1 mps 756 mmHg 93%
    04:00 +23°C° 0 mm 1 mps 755 mmHg 93%
    05:00 +23°C° 0 mm 1 mps 756 mmHg 90%
    06:00 +24°C° 0 mm 1 mps 756 mmHg 86%
    07:00 +25°C° 0 mm 2 mps 756 mmHg 82%
    08:00 +27°C° 0 mm 2 mps 755 mmHg 72%
    09:00 +29°C° 0 mm 3 mps 755 mmHg 63%
    10:00 +31°C° 0 mm 3 mps 755 mmHg 53%
    11:00 +33°C° 0 mm 4 mps 755 mmHg 50%
    12:00 +34°C° 0 mm 4 mps 754 mmHg 47%
    13:00 +35°C° 0 mm 4 mps 754 mmHg 43%
    14:00 +34°C° 0.1 mm 5 mps 754 mmHg 45%
    15:00 +33°C° 0.1 mm 5 mps 754 mmHg 47%
    16:00 +32°C° 0.1 mm 5 mps 753 mmHg 49%
    17:00 +30°C° 0 mm 5 mps 754 mmHg 47%
    18:00 +29°C° 0 mm 5 mps 754 mmHg 45%
    19:00 +28°C° 0 mm 4 mps 754 mmHg 43%
    20:00 +27°C° 0 mm 4 mps 755 mmHg 43%
    21:00 +25°C° 0 mm 4 mps 755 mmHg 42%
    22:00 +23°C° 0 mm 4 mps 756 mmHg 41%
    23:00 +22°C° 0 mm 4 mps 756 mmHg 45%

    Day after tomorrow, 7 June, Sunday

    Time Temperature Precipitation Wind Pressure Humidity
    00:00 +21°C° 0 mm 3 mps 756 mmHg 49%
    01:00 +20°C° 0 mm 3 mps 756 mmHg 53%
    02:00 +20°C° 0 mm 3 mps 756 mmHg 56%
    03:00 +19°C° 0 mm 3 mps 756 mmHg 60%
    04:00 +19°C° 0 mm 3 mps 756 mmHg 63%
    05:00 +19°C° 0 mm 3 mps 757 mmHg 62%
    06:00 +19°C° 0 mm 4 mps 757 mmHg 60%
    07:00 +20°C° 0 mm 4 mps 758 mmHg 59%
    08:00 +21°C° 0 mm 5 mps 758 mmHg 52%
    09:00 +22°C° 0 mm 5 mps 758 mmHg 46%
    10:00 +25°C° 0 mm 5 mps 758 mmHg 39%
    11:00 +25°C° 0 mm 5 mps 758 mmHg 37%
    12:00 +26°C° 0 mm 5 mps 758 mmHg 35%
    13:00 +27°C° 0 mm 5 mps 758 mmHg 33%
    14:00 +27°C° 0 mm 5 mps 758 mmHg 33%
    15:00 +27°C° 0 mm 4 mps 758 mmHg 34%
    16:00 +27°C° 0 mm 4 mps 758 mmHg 35%
    17:00 +26°C° 0 mm 4 mps 758 mmHg 39%
    18:00 +25°C° 0 mm 4 mps 759 mmHg 43%
    19:00 +24°C° 0 mm 3 mps 759 mmHg 47%
    20:00 +22°C° 0 mm 3 mps 760 mmHg 48%
    21:00 +21°C° 0 mm 3 mps 760 mmHg 50%
    22:00 +20°C° 0 mm 3 mps 760 mmHg 52%
    23:00 +19°C° 0 mm 3 mps 761 mmHg 54%

    8 June, Monday

    Time Temperature Precipitation Wind Pressure Humidity
    00:00 +18°C° 0 mm 3 mps 761 mmHg 56%
    01:00 +18°C° 0 mm 3 mps 761 mmHg 58%
    02:00 +17°C° 0 mm 2 mps 761 mmHg 60%
    03:00 +17°C° 0 mm 2 mps 761 mmHg 61%
    04:00 +16°C° 0 mm 2 mps 761 mmHg 63%
    05:00 +17°C° 0 mm 2 mps 762 mmHg 61%
    06:00 +18°C° 0 mm 2 mps 762 mmHg 59%
    07:00 +19°C° 0 mm 2 mps 763 mmHg 57%
    08:00 +21°C° 0 mm 2 mps 763 mmHg 51%
    09:00 +24°C° 0 mm 1 mps 763 mmHg 45%
    10:00 +26°C° 0 mm 1 mps 763 mmHg 40%
    11:00 +27°C° 0 mm 1 mps 763 mmHg 36%
    12:00 +28°C° 0 mm 1 mps 763 mmHg 33%
    13:00 +29°C° 0 mm 1 mps 763 mmHg 30%
    14:00 +29°C° 0 mm 2 mps 762 mmHg 31%
    15:00 +29°C° 0 mm 2 mps 762 mmHg 32%
    16:00 +28°C° 0 mm 2 mps 762 mmHg 32%
    17:00 +27°C° 0 mm 2 mps 762 mmHg 39%
    18:00 +25°C° 0 mm 3 mps 762 mmHg 46%
    19:00 +24°C° 0 mm 3 mps 762 mmHg 53%
    20:00 +22°C° 0 mm 3 mps 762 mmHg 57%
    21:00 +21°C° 0 mm 2 mps 763 mmHg 60%
    22:00 +20°C° 0 mm 2 mps 763 mmHg 64%
    23:00 +19°C° 0 mm 2 mps 763 mmHg 66%

    9 June, Tuesday

    Time Temperature Precipitation Wind Pressure Humidity
    00:00 +19°C° 0 mm 2 mps 763 mmHg 69%
    01:00 +19°C° 0 mm 2 mps 763 mmHg 71%
    02:00 +19°C° 0 mm 2 mps 763 mmHg 70%
    03:00 +18°C° 0 mm 2 mps 763 mmHg 70%
    04:00 +18°C° 0 mm 2 mps 764 mmHg 70%
    05:00 +20°C° 0 mm 1 mps 764 mmHg 67%
    06:00 +21°C° 0 mm 1 mps 764 mmHg 63%
    07:00 +22°C° 0 mm 1 mps 764 mmHg 60%
    08:00 +24°C° 0 mm 2 mps 764 mmHg 53%
    09:00 +26°C° 0 mm 2 mps 764 mmHg 47%
    10:00 +28°C° 0 mm 2 mps 764 mmHg 40%
    11:00 +29°C° 0 mm 2 mps 764 mmHg 38%
    12:00 +30°C° 0 mm 3 mps 763 mmHg 37%
    13:00 +31°C° 0 mm 3 mps 763 mmHg 35%
    14:00 +30°C° 0 mm 4 mps 763 mmHg 36%
    15:00 +30°C° 0 mm 4 mps 763 mmHg 37%
    16:00 +30°C° 0 mm 4 mps 763 mmHg 39%
    17:00 +28°C° 0 mm 4 mps 763 mmHg 42%
    18:00 +27°C° 0 mm 4 mps 763 mmHg 45%
    19:00 +25°C° 0 mm 4 mps 763 mmHg 49%
    20:00 +23°C° 0 mm 4 mps 763 mmHg 51%
    21:00 +21°C° 0 mm 4 mps 764 mmHg 52%
    22:00 +20°C° 0 mm 3 mps 764 mmHg 54%
    23:00 +20°C° 0 mm 3 mps 764 mmHg 56%

    10 June, Wednesday

    Time Temperature Precipitation Wind Pressure Humidity
    00:00 +19°C° 0 mm 3 mps 764 mmHg 59%
    01:00 +19°C° 0 mm 3 mps 764 mmHg 61%
    02:00 +18°C° 0 mm 2 mps 764 mmHg 63%
    03:00 +18°C° 0 mm 2 mps 764 mmHg 65%
    04:00 +18°C° 0 mm 2 mps 764 mmHg 68%
    05:00 +19°C° 0 mm 2 mps 764 mmHg 64%
    06:00 +20°C° 0 mm 2 mps 764 mmHg 61%
    07:00 +21°C° 0 mm 3 mps 764 mmHg 58%
    08:00 +24°C° 0 mm 3 mps 764 mmHg 52%
    09:00 +26°C° 0 mm 3 mps 764 mmHg 46%
    10:00 +28°C° 0 mm 3 mps 764 mmHg 40%
    11:00 +29°C° 0 mm 4 mps 764 mmHg 38%
    12:00 +30°C° 0 mm 4 mps 763 mmHg 37%
    13:00 +30°C° 0 mm 4 mps 763 mmHg 35%
    14:00 +30°C° 0 mm 4 mps 763 mmHg 36%
    15:00 +30°C° 0 mm 5 mps 763 mmHg 38%
    16:00 +29°C° 0 mm 5 mps 762 mmHg 39%
    17:00 +27°C° 0 mm 4 mps 762 mmHg 45%
    18:00 +25°C° 0 mm 4 mps 762 mmHg 51%
    19:00 +23°C° 0 mm 4 mps 763 mmHg 56%
    20:00 +22°C° 0 mm 3 mps 763 mmHg 62%
    21:00 +20°C° 0 mm 3 mps 763 mmHg 68%
    22:00 +19°C° 0 mm 3 mps 763 mmHg 74%
    23:00 +19°C° 0 mm 2 mps 763 mmHg 76%
    Show more